#timestamp,LO_Frequency,Hit 
1505131215.2,286046998.8,N
1505131235.0,286047001.1,N
1505131235.9,286047001.1,N
1505131255.7,286046998.6,N
1505131275.6,286046998.2,N
1505131295.4,286047000.0,N
1505131315.2,286047002.2,N
1505131335.1,286047005.9,N
1505131336.0,286047005.9,N
1505131355.8,286047005.2,N
1505131375.6,286047002.1,N
1505131395.5,286047004.3,N
1505131415.3,286047010.8,P
1505131435.1,286047010.1,N
1505131455.9,286047006.6,N
1505131475.7,286047005.0,N
1505131495.5,286047004.8,N
1505131515.4,286047005.4,N
1505131535.2,286047003.1,N
1505131555.0,286047005.2,N
1505131555.9,286047005.2,N
1505131575.9,286047003.6,N
1505131595.7,286047004.6,N
1505131615.5,286047002.9,N
1505131635.4,286047002.6,N
1505131655.2,286046999.2,N
1505131675.0,286047002.4,N
1505131675.9,286047002.4,N
1505131695.8,286047002.1,N
1505131715.6,286046994.9,N
1505131735.4,286046998.0,N
1505131755.3,286047000.8,N
1505131775.1,286046998.4,N
1505131776.0,286046998.4,N
1505131795.8,286046999.1,N
1505131815.7,286046994.1,N
1505131835.5,286046995.5,N
1505131855.3,286047000.5,N
1505131875.1,286046998.6,N
1505131895.9,286047000.5,N
1505131915.7,286047002.8,N
1505131935.5,286047002.2,N
1505131955.4,286047006.0,N
1505131975.2,286047000.2,N
1505131995.0,286047000.6,N
1505131995.9,286047000.6,N
1505132015.8,286047000.3,N
1505132035.6,286047002.5,N
1505132055.4,286047006.0,N
1505132075.3,286047000.6,N
1505132095.1,286047000.0,N
1505132096.0,286047000.0,N
1505132115.8,286047000.9,N
1505132135.7,286046999.3,N
1505132155.5,286047000.2,N
1505132175.3,286047005.9,N
1505132195.2,286046998.7,N
1505132215.9,286046999.4,N
1505132235.7,286047002.4,N
1505132255.6,286047005.5,N
1505132275.4,286047004.2,N
1505132295.2,286047005.6,N
1505132315.0,286047005.3,N
1505132315.9,286047005.3,N
1505132335.8,286047007.6,N
1505132355.6,286047008.8,N
1505132375.4,286047005.4,N
1505132395.3,286047005.4,N
1505132415.1,286047004.5,N
1505132435.8,286047003.6,N
1505132455.7,286047004.4,N
1505132475.5,286047004.2,N
1505132495.3,286047001.3,N
1505132515.2,286047004.0,N
1505132535.9,286047004.6,N
1505132555.7,286047006.0,N
1505132575.6,286047001.9,N
1505132595.4,286047003.9,N
1505132615.2,286047002.4,N
1505132635.0,286047003.0,N
1505132636.0,286047003.0,N
1505132655.8,286047000.5,N
1505132675.6,286047001.7,N
1505132695.4,286047000.1,N
1505132715.3,286047003.1,N
1505132735.1,286047002.9,N
1505132755.8,286047003.0,N
1505132775.7,286047003.0,N
1505132795.5,286047003.6,N
1505132815.3,286047003.2,N
1505132835.2,286047004.8,N
1505132855.9,286047007.2,P
1505132875.7,286047005.0,N
1505132895.6,286047005.0,P
1505132915.4,286047003.6,N
1505132935.3,286047004.3,P
1505132955.1,286046997.5,P
1505132956.0,286046997.5,N
1505132975.8,286046997.0,N
1505132995.6,286046995.7,N
1505133015.5,286046993.9,N
1505133035.3,286046997.3,N
1505133055.1,286046997.1,N
1505133075.9,286046996.0,N
1505133095.7,286046994.3,N
1505133115.5,286046996.4,N
1505133135.4,286046994.9,N
1505133155.2,286046998.0,N
1505133175.0,286046997.9,N
1505133175.9,286046997.9,N
1505133195.8,286046994.1,N
1505133215.6,286046994.7,N
1505133235.4,286046991.9,N
1505133255.3,286046990.3,P
1505133275.1,286046994.4,N
1505133276.0,286046994.4,N
1505133295.8,286046994.9,N
1505133315.7,286046994.0,N
1505133335.5,286046996.4,N
1505133355.3,286046994.2,N
1505133375.2,286046990.1,P
1505133395.9,286046995.0,N
1505133415.7,286046997.7,N
1505133435.6,286046997.4,N
1505133455.4,286046998.6,N
1505133475.2,286047002.7,N
1505133495.1,286047000.6,N
1505133496.0,286047000.6,N
1505133515.8,286046999.8,N
1505133535.6,286046998.2,N
1505133555.5,286047001.0,N
1505133575.3,286047000.5,N
1505133595.1,286047000.8,N
1505133615.8,286047001.8,N
1505133635.7,286047000.0,N
1505133655.5,286046995.2,N
1505133675.4,286046989.2,P
1505133695.2,286046989.1,N
1505133715.0,286046990.7,N
1505133715.9,286046990.7,N
1505133735.8,286046988.9,P
1505133755.6,286047000.9,N
1505133775.4,286047003.9,N
1505133795.3,286047004.9,N
1505133815.1,286047004.5,N
1505133816.0,286047004.5,N
1505133835.8,286047008.5,N
1505133855.6,286047009.8,N
1505133875.5,286047013.3,N
1505133895.3,286047010.9,N
1505133915.1,286047014.3,N
1505133935.9,286047016.8,N
1505133955.7,286047011.2,N
1505133975.6,286047009.3,N
1505133995.4,286047015.5,N
1505134015.2,286047011.0,N
1505134035.1,286047009.3,N
1505134036.0,286047009.3,N
1505134055.8,286047012.4,N
1505134075.6,286047011.5,N
1505134095.4,286047013.7,N
1505134115.3,286047009.8,N
1505134135.1,286047011.9,N
1505134155.8,286047015.2,N
1505134175.7,286047011.1,N
1505134195.5,286047008.1,N
1505134215.3,286047011.7,N
1505134235.2,286047010.0,N
1505134255.9,286047006.2,N
1505134275.7,286047007.3,N
1505134295.6,286047005.9,N
1505134315.4,286047005.5,N
1505134335.2,286047005.6,N
1505134355.1,286047002.4,N
1505134356.0,286047002.4,N
1505134375.8,286047004.3,N
1505134395.6,286047000.0,N
1505134415.4,286046996.6,N
1505134435.3,286046998.4,N
1505134455.1,286047002.0,N
1505134475.8,286047001.6,N
1505134495.7,286047002.3,N
1505134515.5,286047001.7,N
1505134535.3,286047002.8,N
1505134555.2,286047005.7,N
1505134575.9,286047005.5,N
1505134595.7,286047005.2,N
1505134615.6,286047003.4,N
1505134635.4,286047004.7,N
1505134655.2,286047004.8,N
1505134675.1,286047007.5,N
1505134676.0,286047007.5,N
1505134695.8,286047003.1,N
1505134715.6,286047000.1,N
1505134735.5,286047002.1,N
1505134755.3,286047000.1,N
1505134775.1,286047005.7,N
1505134795.8,286047003.2,N
